This demonstration page uses our WeatherBlox Daily Observations layout. Learn more.

39.08367, -84.50855

Hourly Observations for July 5, 2020

Temp ( °F °C ) Dew Point ( °F °C ) Humidity (%) Winds ( mph kmh ) Pressure ( in mb ) Visibility ( mi km ) Precip ( " mm )
12:53 am 00:53 Clear with Mist and Fog 71 21.7 68 20 90 90 Calm 29.95 1014 4 6.43736 0 0
1:53 am 01:53 Clear with Mist and Fog 70 21.1 68 20 93 93 ENE 3 6 29.96 1014 3 4.82802 0 0
2:53 am 02:53 Clear with Mist and Fog 69 20.6 67 19.4 93 93 Calm 29.95 1014 3 4.82802 0 0
3:32 am 03:32 Clear with Mist and Fog 69 20.6 67 19.4 93 93 Calm 29.94 1014 2.5 4.02335 0 0
3:41 am 03:41 Clear with Mist and Fog 70 21.1 68 20 93 93 Calm 29.95 1014 3 4.82802 0 0
3:53 am 03:53 Clear with Mist and Fog 69 20.6 67 19.4 93 93 Calm 29.94 1014 2.5 4.02335 0 0
4:09 am 04:09 Clear with Mist and Fog 69 20.6 67 19.4 93 93 Calm 29.95 1014 3 4.82802 0 0
4:53 am 04:53 Clear with Mist and Fog 69 20.6 67 19.4 93 93 Calm 29.94 1014 3 4.82802 0 0
5:53 am 05:53 Clear with Mist and Fog 68 20 66 18.9 93 93 Calm 29.96 1014 3 4.82802 0 0
6:21 am 06:21 Sunny with Mist and Fog 67 19.4 65 18.3 93 93 Calm 29.97 1015 1.75 2.816345 0 0
6:29 am 06:29 Sunny with Fog 67 19.4 66 18.9 97 97 NE 3 6 29.97 1015 0.5 0.80467 0 0
6:41 am 06:41 Sunny with Mist and Fog 67 19.4 66 18.9 97 97 NNE 3 6 29.97 1015 1.5 2.41401 0 0
6:53 am 06:53 Sunny with Mist and Fog 69 20.6 67 19.4 93 93 Calm 29.97 1015 3 4.82802 0 0
7:53 am 07:53 Sunny with Mist and Fog 72 22.2 68 20 87 87 ENE 3 6 29.98 1015 4 6.43736 0 0
8:53 am 08:53 Sunny 77 25 69 20.6 77 77 NNE 5 7 29.98 1015 8 12.87472 0 0
9:53 am 09:53 Sunny 80 26.7 70 21.1 71 71 Calm 29.98 1015 10 16.0934 0 0
10:53 am 10:53 Sunny 85 29.4 71 21.7 63 63 Calm 29.98 1015 10 16.0934 0 0
11:53 am 11:53 Sunny 90 32.2 66 18.9 45 45 NNW 3 6 29.98 1015 10 16.0934 0 0
12:53 pm 12:53 Sunny 91 32.8 69 20.6 49 49 WNW 3 6 29.97 1015 10 16.0934 0 0
1:53 pm 13:53 Sunny 92 33.3 66 18.9 43 43 WSW 6 9 29.96 1015 10 16.0934 0 0
2:53 pm 14:53 Sunny 92 33.3 67 19.4 44 44 SSE 5 7 29.94 1014 10 16.0934 0 0
3:53 pm 15:53 Sunny 94 34.4 64 17.8 37 37 Calm 29.92 1013 10 16.0934 0 0
4:53 pm 16:53 Sunny 92 33.3 65 18.3 41 41 SW 3 6 29.9 1013 10 16.0934 0 0
5:53 pm 17:53 Sunny 92 33.3 66 18.9 43 43 ESE 5 7 29.89 1012 10 16.0934 0 0
6:53 pm 18:53 Partly Cloudy 89 31.7 71 21.7 55 55 Calm 29.89 1012 10 16.0934 0 0
7:23 pm 19:23 Cloudy with Nearby Thunderstorms 85 29.4 73 22.8 68 68 Calm 29.88 1012 10 16.0934 0 0
7:53 pm 19:53 Partly Cloudy with Nearby Thunderstorms 82 27.8 74 23.3 77 77 SSW 3 6 29.9 1013 10 16.0934 0 0
8:13 pm 20:13 Sunny 82 27.8 73 22.8 74 74 Calm 29.89 1012 10 16.0934 0 0
8:53 pm 20:53 Sunny 81 27.2 72 22.2 74 74 Calm 29.92 1013 9 14.48406 0 0
9:53 pm 21:53 Clear 79 26.1 68 20 69 69 Calm 29.94 1014 10 16.0934 0 0
10:53 pm 22:53 Mostly Clear 77 25 69 20.6 77 77 Calm 29.95 1014 10 16.0934 0 0
11:53 pm 23:53 Clear 75 23.9 69 20.6 82 82 Calm 29.96 1014 9 14.48406 0 0

Powered by AerisWeather